CZ-6A DEB

Satellite information

Favourite Embed

Satellite Type and Status

DEBRISIN ORBIT

Key statistics

Satellite CZ-6A DEB at a glance.

Uptime

970

Days in orbit

Revolutions

≈ 14.3

Per day

Orbit

SSO

Sun Synchronous Orbit

Inclination

98.7

Latest

Satellite identification and parameters

Extended collection of information and parameters for CZ-6A DEB.

Object identification

Identified? True

Debris? True

Object name: CZ-6A DEB

International designator: 2022-151YW

Object number (NORAD): 55548

Object ID (CCSDS): 55548

Country: PEOPLES REPUBLIC OF CHINA (PRC)

Current information (Y/N): Y

RCS size: SMALL

Orbital parameters

Period: 100.563 minutes

Inclination: 98.6926 deg

SMA: 7163.412 km

Apoapsis: 837.004 km

Periapsis: 733.55 km

RAAN: 197.5132 deg

Eccentricy: 0.007221

Argument of periapsis: 61.0364 deg

Mean anomaly: 299.8034 deg

Mean motion: 14.31933614 rev/day

Mean motion (dot): 0.00004104 rev/day2

B* drag term: 0.0015033 1/REarth

Two-line elements (TLE)

Creation date: July 5, 2025, 5:45 p.m.

Reference frame: TEME

Reference center: EARTH

Epoch: July 4, 2025, 11:37 p.m. UTC

TLE line 0: 0 CZ-6A DEB

TLE line 1: 1 55548U 22151YW 25185.98455607 .00004104 00000-0 15033-2 0 9996

TLE line 2: 2 55548 98.6926 197.5132 0072210 61.0364 299.8034 14.31933614136986

Live tracking on map

Real-time ground track for satellite CZ-6A DEB.

In-orbit conjunctions

A list of the most updated potential collisions computed for object CZ-6A DEB.

Target Orbit TCA Probability of collision Miss distance Type
TITAN 4B CENTAUR R/B MEO 2024-11-16 10:06:53 0.0001139614 643.0 (m) ROCKET BODY
SL-8 DEB LEO 2024-06-22 19:29:00 0.0001625054 91.0 (m) DEBRIS

Associated space launch

Chinese satellite reported for atmospheric/ocean/environmental/spatial parameter research purposes, details TBD.

CZ-6A DEB was lifted into orbit during the mission ‘Long March 6A | Yunhai 3’, on board a Long March 6A space rocket.

The launch took place on Nov. 11, 2022, 10:52 p.m. from Launch Complex 9A.

For more information about the launch, click the button.

Launch to space Long March 6A | Yunhai 3
Long March 6A | Yunhai 3

Agency: N/A

Status: Launch Successful

Launch date: Nov. 11, 2022, 10:52 p.m. UTC

Rocket: Long March 6A

Launch pad: Launch Complex 9A

Location: Taiyuan Satellite Launch Center, People's Republic of China

...

Latest news about this satellite

There are no fresh news available about this satellite. Check back as we update our databases every day.


Newsletter sign-up

Weekly statistics, charts and insights to help you stay on top of the space industry.